[[{"header":{"parameterUnit":"m.s-1","parameterCategory":1,"la1":30.2991,"la2":30.254,"lo1":-89.0895,"lo2":-89.0444,"dy":0.0017,"dx":0.0017,"nx":28,"ny":28,"refTime":"2025-11-26T09:00:00:Z","depth":0,"parameterNumber":2,"parameterNumberName":"U-component_of_WINDS"},"data":[0,0,0,0,0,0,0,0,0,0,0,0,0,0,0,0,0,0,0,0,0,0,0,0,0,0,0,0,0,0,0,0,0,0,0,0,0,0,0,0,0,0,0,0,0,0,0,0,0,0,0,0,0,0,0,0,0,0,-1.7085,-1.7086,0,-1.7154,-1.7154,-1.7155,-1.7065,-1.7062,-1.7059,-1.7056,-1.7128,-1.7133,-1.7138,0,0,0,0,0,0,0,0,0,0,0,0,0,-1.6877,-1.6881,-1.7085,-1.7086,-1.7087,-1.7153,-1.7154,-1.7155,-1.7066,-1.7062,-1.7058,-1.7054,-1.7126,-1.7132,-1.7138,0,0,0,0,0,0,0,0,0,0,0,0,0,-1.6958,-1.6882,-1.7085,-1.705,-1.7047,-1.7153,-1.7154,-1.7156,-1.7067,-1.7062,-1.7057,-1.7052,-1.7124,-1.7132,-1.7139,-1.7283,0,0,-1.7162,-1.7165,0,0,0,0,0,0,0,0,-1.6954,-1.6966,-1.7054,-1.7053,-1.705,-1.7096,-1.7107,-1.7198,-1.7068,-1.706,-1.7056,-1.705,-1.7121,-1.7129,-1.7152,-1.7286,-1.7289,-1.7162,-1.7167,-1.717,-1.7172,0,0,0,0,0,0,0,-1.6948,-1.6963,-1.7112,-1.7056,-1.7053,-1.7031,-1.7037,-1.7124,-1.7117,-1.706,-1.7053,-1.7063,-1.7119,-1.7145,-1.7153,-1.729,-1.7162,-1.7169,-1.7173,-1.7176,-1.7544,-1.755,0,0,0,0,0,0,-1.6947,-1.6959,-1.711,-1.7114,-1.6989,-1.7039,-1.7046,-1.7086,-1.7116,-1.7116,-1.7067,-1.7058,-1.7135,-1.7145,-1.7156,-1.7326,-1.717,-1.7177,-1.7181,-1.7539,-1.7546,-1.7551,0,0,0,0,0,0,-1.6943,-1.6961,-1.7107,-1.7035,-1.7052,-1.7047,-1.7094,-1.709,-1.7116,-1.7121,-1.7119,-1.7095,-1.7132,-1.7145,-1.7251,-1.7328,-1.718,-1.7187,-1.7533,-1.7541,-1.7549,-1.7669,0,0,0,0,0,0,-1.6937,-1.696,-1.7015,-1.7037,-1.7056,-1.7202,-1.7098,-1.7095,-1.7129,-1.7118,-1.7147,-1.7147,-1.7129,-1.7241,-1.7259,-1.7335,-1.7193,-1.7526,-1.7537,-1.7546,-1.7658,-1.768,-1.7699,0,0,0,0,0,-1.693,-1.7047,-1.7018,-1.7037,-1.7124,-1.7207,-1.7218,-1.7194,-1.7135,-1.7191,-1.7193,-1.7146,-1.7316,-1.7253,-1.7272,-1.7352,-1.7521,-1.7534,-1.7545,-1.7649,-1.7676,-1.7698,0,0,0,0,0,0,-1.7035,-1.7049,-1.7018,-1.7145,-1.7175,-1.7192,-1.7261,-1.7223,-1.7271,-1.726,-1.7228,-1.7235,-1.7349,-1.736,-1.729,-1.7492,-1.7409,-1.7425,-1.7481,-1.7506,-1.7526,-1.7522,-1.7199,0,0,0,0,0,-1.7073,-1.7139,-1.7147,-1.7258,-1.7275,-1.7265,-1.73,-1.7279,-1.731,-1.7323,-1.7333,-1.7365,-1.7425,-1.7466,-1.7521,-1.7658,-1.7663,-1.7722,-1.7742,-1.7759,-1.7775,-1.7848,-1.7874,-1.7591,-1.7591,-1.759,0,0,-1.7152,-1.7168,-1.7212,-1.728,-1.7301,-1.737,-1.7277,-1.7354,-1.7405,-1.7334,-1.7436,-1.7444,-1.7478,-1.76,-1.7654,-1.7613,-1.7853,-1.7774,-1.7787,-1.7794,-1.7863,-1.789,-1.7913,-1.7599,-1.7597,-1.7596,0,0,-1.7333,-1.7351,-1.7445,-1.7468,-1.7501,-1.7493,-1.7516,-1.7537,-1.754,-1.7641,-1.7589,-1.7649,-1.7753,-1.7779,-1.7806,-1.7993,-1.7952,-1.8012,-1.8119,-1.8191,-1.8213,-1.8233,-1.8301,-1.8326,-1.8027,-1.8027,-1.8027,0,-1.7428,-1.753,-1.7499,-1.758,-1.7612,-1.7549,-1.7645,-1.7668,-1.7718,-1.7741,-1.7693,-1.7822,-1.784,-1.7968,-1.8013,-1.8037,-1.8062,-1.801,-1.8212,-1.8232,-1.825,-1.8314,-1.834,-1.8034,-1.8034,-1.8033,-1.8032,0,-1.7645,-1.7717,-1.7789,-1.7838,-1.7877,-1.7965,-1.7948,-1.7992,-1.7966,-1.7963,-1.8066,-1.8085,-1.8143,-1.8171,-1.8147,-1.8295,-1.8268,-1.8217,-1.8133,-1.8284,-1.8345,-1.8369,-1.8045,-1.8042,-1.804,-1.8038,0,0,-1.7898,-1.7926,-1.7954,-1.7975,-1.8005,-1.806,-1.8144,-1.82,-1.8239,-1.8274,-1.8345,-1.8433,-1.8385,-1.8416,-1.8393,-1.8456,-1.8604,-1.8397,-1.8397,-1.8436,-1.8769,-1.881,-1.8839,-1.8575,-1.858,-1.8584,-1.8767,0,-1.8079,-1.8226,-1.82,-1.8342,-1.8408,-1.8347,-1.8421,-1.8447,-1.8446,-1.8502,-1.85,-1.8564,-1.8495,-1.8513,-1.8572,-1.8574,-1.8671,-1.856,-1.8642,-1.8646,-1.8639,-1.887,-1.8913,-1.9086,-1.879,-1.8794,-1.8797,0,-1.8312,-1.8355,-1.8505,-1.8523,-1.855,-1.8616,-1.8665,-1.8718,-1.8747,-1.8741,-1.8774,-1.874,-1.8824,-1.8736,-1.8852,-1.8777,-1.8808,-1.8814,-1.882,-1.8829,-1.8733,-1.8888,-1.914,-1.9167,-1.8833,-1.8831,-1.8828,0,-1.8483,-1.8578,-1.868,-1.8699,-1.8723,-1.8772,-1.8784,-1.8807,-1.8842,-1.8884,-1.8907,-1.8958,-1.8987,-1.9028,-1.9008,-1.8946,-1.9128,-1.9038,-1.9127,-1.9127,-1.917,-1.9169,-1.9434,-1.9187,-1.9186,-1.9186,-1.9185,0,-1.8691,-1.8785,-1.8757,-1.882,-1.8923,-1.8891,-1.8994,-1.8999,-1.902,-1.9082,-1.9032,-1.9092,-1.9061,-1.9118,-1.9103,-1.9202,-1.9214,-1.9213,-1.9208,-1.9219,-1.922,-1.9242,-1.923,-1.9193,-1.9191,-1.919,-1.9189,0,-1.8901,-1.8886,-1.8993,-1.9006,-1.9011,-1.9087,-1.9098,-1.9157,-1.915,-1.923,-1.9247,-1.9238,-1.9302,-1.9286,-1.9356,-1.9346,-1.9471,-1.9449,-1.9462,-1.9457,-1.9547,-1.954,-1.9838,-1.9876,-1.9602,-1.9605,-1.9607,0,-1.9036,-1.9107,-1.9127,-1.9165,-1.9181,-1.9243,-1.9278,-1.9248,-1.9286,-1.9323,-1.9377,-1.9437,-1.9484,-1.959,-1.959,-1.9643,-1.9624,-1.9725,-1.9632,-1.9641,-1.9628,-1.9625,-1.9632,-1.9745,-1.9748,-1.975,-1.9752,0,-1.9278,-1.9266,-1.9318,-1.9368,-1.9411,-1.9449,-1.9482,-1.9516,-1.9488,-1.9534,-1.9599,-1.9635,-1.9706,-1.9767,-1.9815,-1.9827,-1.9787,-1.9781,-1.9804,-1.9818,-1.9822,-1.9823,-1.9514,-1.9775,-1.9773,-1.9771,-1.977,-1.9769,-1.9456,-1.9516,-1.9539,-1.9599,-1.962,-1.9652,-1.9707,-1.9707,-1.9761,-1.9816,-1.9794,-1.987,-1.9894,-1.9955,-1.9973,-2.0031,-1.9993,-2.0027,-2.0036,-2.0045,-2.0057,-1.9811,-2.0039,-2.0039,-2.0038,-2.0037,-2.0037,0,-1.9696,-1.9707,-1.9762,-1.981,-1.9857,-1.9811,-1.9844,-1.9887,-1.9954,-1.9979,-2.0026,-2.01,-2.0158,-2.0161,-2.0215,-2.0261,-2.0243,-2.0276,-2.0274,-2.0278,-2.0087,-2.0063,-2.029,-2.029,-2.029,-2.029,-2.029,-2.029,-1.9827,-1.9927,-1.9917,-2.0026,-2.0036,-2.0109,-2.0133,-2.0161,-2.0182,-2.0267,-2.0315,-2.0315,-2.0332,-2.0387,-2.0437,-2.0437,-2.046,-2.0501,-2.0493,-2.0316,-2.0291,-2.0267,-2.0244,-2.0505,-2.0506,-2.0679,-2.068,-2.0682]},{"header":{"parameterUnit":"m.s-1","parameterCategory":1,"la1":30.2991,"la2":30.254,"lo1":-89.0895,"lo2":-89.0444,"dy":0.0017,"dx":0.0017,"nx":28,"ny":28,"refTime":"2025-11-26T09:00:00:Z","depth":0,"parameterNumber":3,"parameterNumberName":"V-component_of_WINDS"},"data":[0,0,0,0,0,0,0,0,0,0,0,0,0,0,0,0,0,0,0,0,0,0,0,0,0,0,0,0,0,0,0,0,0,0,0,0,0,0,0,0,0,0,0,0,0,0,0,0,0,0,0,0,0,0,0,0,0,0,-6.0988,-6.099,0,-6.1128,-6.113,-6.1131,-6.1029,-6.1025,-6.102,-6.1016,-6.1153,-6.1161,-6.1169,0,0,0,0,0,0,0,0,0,0,0,0,0,-6.0626,-6.0634,-6.0988,-6.099,-6.0992,-6.1128,-6.113,-6.1132,-6.103,-6.1024,-6.1019,-6.1014,-6.1151,-6.116,-6.1169,0,0,0,0,0,0,0,0,0,0,0,0,0,-6.0777,-6.0636,-6.0988,-6.0957,-6.0956,-6.1127,-6.113,-6.1132,-6.1031,-6.1024,-6.1017,-6.1011,-6.1148,-6.1159,-6.1171,-6.1378,0,0,-6.1207,-6.1212,0,0,0,0,0,0,0,0,-6.0768,-6.079,-6.096,-6.096,-6.0959,-6.1054,-6.1052,-6.1214,-6.1033,-6.1002,-6.1016,-6.1008,-6.1125,-6.1139,-6.1179,-6.1384,-6.139,-6.1208,-6.1215,-6.122,-6.1223,0,0,0,0,0,0,0,-6.0758,-6.0783,-6.1043,-6.0963,-6.0962,-6.0935,-6.0948,-6.1083,-6.11,-6.1004,-6.0997,-6.1016,-6.1124,-6.1168,-6.1182,-6.1392,-6.1207,-6.1218,-6.1225,-6.123,-6.1772,-6.1779,0,0,0,0,0,0,-6.0751,-6.0775,-6.1039,-6.1047,-6.0845,-6.0947,-6.0962,-6.103,-6.1098,-6.1102,-6.1021,-6.101,-6.1152,-6.1168,-6.1186,-6.1432,-6.122,-6.1231,-6.1238,-6.1765,-6.1774,-6.1781,0,0,0,0,0,0,-6.0744,-6.0776,-6.1033,-6.091,-6.094,-6.096,-6.1037,-6.1037,-6.1081,-6.1111,-6.1113,-6.1064,-6.1147,-6.117,-6.1331,-6.1436,-6.1236,-6.1247,-6.1756,-6.1767,-6.1777,-6.1927,0,0,0,0,0,0,-6.0734,-6.0774,-6.0854,-6.0912,-6.0947,-6.1178,-6.1044,-6.1044,-6.1102,-6.109,-6.1152,-6.1155,-6.1143,-6.1314,-6.1343,-6.1448,-6.1256,-6.1747,-6.1761,-6.1774,-6.1913,-6.1942,-6.1967,0,0,0,0,0,-6.0721,-6.089,-6.0859,-6.0891,-6.1049,-6.1184,-6.1204,-6.1189,-6.1111,-6.1191,-6.121,-6.1153,-6.142,-6.1331,-6.1363,-6.1474,-6.174,-6.1757,-6.1773,-6.1901,-6.1936,-6.1966,0,0,0,0,0,0,-6.0842,-6.0897,-6.0863,-6.1056,-6.1117,-6.1167,-6.1268,-6.1227,-6.1309,-6.1293,-6.1268,-6.1283,-6.1453,-6.1479,-6.138,-6.1677,-6.1567,-6.1591,-6.1654,-6.1688,-6.1714,-6.1704,-6.1266,0,0,0,0,0,-6.0892,-6.0999,-6.104,-6.1206,-6.1238,-6.1248,-6.1307,-6.1289,-6.135,-6.1375,-6.1405,-6.1465,-6.1561,-6.1626,-6.1716,-6.1916,-6.1927,-6.2007,-6.2034,-6.2056,-6.2077,-6.2183,-6.2219,-6.1836,-6.1836,-6.1835,0,0,-6.0994,-6.1037,-6.1106,-6.1232,-6.1276,-6.1386,-6.127,-6.1392,-6.1472,-6.1392,-6.1547,-6.1571,-6.1636,-6.1817,-6.1898,-6.1844,-6.2185,-6.2077,-6.2095,-6.2103,-6.2204,-6.224,-6.2272,-6.1847,-6.1845,-6.1843,0,0,-6.1237,-6.1282,-6.1424,-6.1472,-6.1542,-6.1547,-6.1581,-6.1638,-6.1652,-6.1807,-6.1749,-6.1843,-6.2011,-6.2059,-6.2105,-6.2365,-6.2316,-6.2395,-6.2536,-6.2639,-6.267,-6.2696,-6.2788,-6.2822,-6.2416,-6.2416,-6.2416,0,-6.1355,-6.1521,-6.1502,-6.1628,-6.1684,-6.1619,-6.1762,-6.1808,-6.1903,-6.1942,-6.1881,-6.2089,-6.2128,-6.2319,-6.2382,-6.2422,-6.2459,-6.2388,-6.2667,-6.2694,-6.2718,-6.2806,-6.284,-6.2425,-6.2424,-6.2423,-6.2422,0,-6.1662,-6.1777,-6.1884,-6.198,-6.2047,-6.2181,-6.2181,-6.2251,-6.2228,-6.2239,-6.2396,-6.244,-6.2539,-6.2582,-6.256,-6.277,-6.2734,-6.2671,-6.256,-6.2764,-6.2846,-6.2879,-6.2438,-6.2435,-6.2432,-6.243,0,0,-6.1986,-6.207,-6.2109,-6.2151,-6.2223,-6.231,-6.244,-6.2538,-6.2598,-6.2665,-6.2772,-6.2915,-6.2857,-6.291,-6.2892,-6.2983,-6.3185,-6.2907,-6.2908,-6.2957,-6.3418,-6.3465,-6.3504,-6.3152,-6.3159,-6.3164,-6.3412,0,-6.2233,-6.2461,-6.2448,-6.2662,-6.2767,-6.2705,-6.2818,-6.2873,-6.2886,-6.2976,-6.2989,-6.3091,-6.3006,-6.3037,-6.3125,-6.3142,-6.3277,-6.3124,-6.325,-6.3255,-6.3236,-6.3547,-6.3598,-6.3831,-6.3444,-6.3449,-6.3453,0,-6.2551,-6.2631,-6.2857,-6.2911,-6.2955,-6.3057,-6.3145,-6.3232,-6.3292,-6.3294,-6.3354,-6.332,-6.3449,-6.3335,-6.3511,-6.3407,-6.3458,-6.3474,-6.3482,-6.3493,-6.3367,-6.3566,-6.3904,-6.3939,-6.3503,-6.3499,-6.3496,0,-6.2764,-6.2928,-6.3084,-6.3122,-6.319,-6.3263,-6.3294,-6.3348,-6.3407,-6.3483,-6.352,-6.361,-6.3659,-6.3727,-6.3718,-6.3636,-6.3897,-6.3782,-6.3901,-6.3902,-6.3959,-6.3956,-6.431,-6.3992,-6.3992,-6.3991,-6.399,0,-6.3041,-6.3181,-6.318,-6.3276,-6.343,-6.3412,-6.3564,-6.3587,-6.3635,-6.3733,-6.3684,-6.3776,-6.3758,-6.3849,-6.3842,-6.3988,-6.4011,-6.4015,-6.4012,-6.402,-6.402,-6.4053,-6.4036,-6.4,-6.3998,-6.3996,-6.3995,0,-6.3306,-6.3311,-6.3477,-6.3528,-6.3544,-6.3655,-6.3698,-6.3787,-6.3796,-6.392,-6.3947,-6.3961,-6.4065,-6.4063,-6.4181,-6.4177,-6.4356,-6.4334,-6.4337,-6.4332,-6.4451,-6.444,-6.4839,-6.489,-6.4539,-6.4543,-6.4546,0,-6.3482,-6.3589,-6.3651,-6.3714,-6.3751,-6.3852,-6.3912,-6.3898,-6.3962,-6.4038,-6.4118,-6.4218,-6.4298,-6.4468,-6.4486,-6.4576,-6.4556,-6.4689,-6.4569,-6.4573,-6.4557,-6.4551,-6.4561,-6.4713,-6.4717,-6.472,-6.4723,0,-6.3794,-6.3792,-6.3882,-6.3973,-6.4047,-6.4118,-6.4183,-6.4236,-6.4228,-6.4303,-6.441,-6.4472,-6.4593,-6.4693,-6.4779,-6.4808,-6.4765,-6.476,-6.4793,-6.4802,-6.4799,-6.4802,-6.4401,-6.4751,-6.4749,-6.4746,-6.4745,-6.4744,-6.402,-6.4111,-6.417,-6.4271,-6.4319,-6.4381,-6.4467,-6.4487,-6.4577,-6.4676,-6.4661,-6.4781,-6.4836,-6.4947,-6.4985,-6.5076,-6.5029,-6.5076,-6.5088,-6.5099,-6.5113,-6.4785,-6.5092,-6.5091,-6.509,-6.509,-6.5089,0,-6.4329,-6.4364,-6.4458,-6.4551,-6.463,-6.4583,-6.4652,-6.4721,-6.4828,-6.4884,-6.4964,-6.5086,-6.5182,-6.5209,-6.5301,-6.5369,-6.5351,-6.5394,-6.5388,-6.5396,-6.515,-6.5113,-6.5407,-6.5407,-6.5407,-6.5407,-6.5406,-6.5406,-6.4499,-6.4652,-6.4656,-6.483,-6.4862,-6.4981,-6.5024,-6.508,-6.5125,-6.5265,-6.5345,-6.5362,-6.5406,-6.55,-6.5586,-6.5591,-6.5627,-6.5678,-6.5675,-6.5445,-6.5413,-6.5383,-6.5348,-6.5686,-6.5686,-6.5912,-6.5915,-6.5916]}]]